Regional Weather Roundup
Issued by NWS Goodland, KS

Home | Current Version | Previous Version | Graphics & Text | Print | Product List | Glossary On
Versions: 1 2 3 4 5 6 7 8 9 10 11 12 13 14 15 16 17 18 19 20 21 22 23 24 25 26 27 28 29 30 31 32 33 34 35 36 37 38 39 40 41 42 43 44 45 46 47 48 49 50
000
ASUS43 KGLD 201608
RWRGLD

GOODLAND FORECAST AREA HOURLY WEATHER ROUNDUP
NATIONAL WEATHER SERVICE GOODLAND KS
1000 AM MDT THU JUL 20 2017

...OFFICIAL OBSERVATIONS...

CITY           SKY/WX    TMP DP  RH WIND       PRES   REMARKS
GOODLAND KS    SUNNY     83  64  52 W5        30.06F
HILL CITY KS   SUNNY     92  64  39 W12       30.00F
IMPERIAL NEB   SUNNY     85  60  42 E12       30.04F
MCCOOK NEB     SUNNY     86  62  44 VRB3      30.01R
AKRON CO       SUNNY     82  57  42 N8        30.17S
BURLINGTON CO  SUNNY     81  65  58 N7        30.11S
LIMON CO       SUNNY     78  60  53 NW13      30.22F
$$

...UNOFFICIAL OBSERVATIONS...

CITY           SKY/WX    TMP DP  RH WIND       PRES   REMARKS
LENORA KS        N/A     86  32  14 MISG        N/A
NORTON KS      SUNNY     84  57  39 S8        30.00
SHARON SPRINGS   N/A     85  64  49 SW8         N/A
TRIBUNE KS     SUNNY     88  61  40 S9        30.09
TRENTON NEB      N/A     85  32  15 NE5         N/A
KIT CARSON CO    N/A     82  64  53 MISG        N/A
YUMA CO        FAIR      79  55  44 N6        30.12S
$$




USA.gov is the U.S. government's official web portal to all federal, state and local government web resources and services.